[[{"header":{"parameterUnit":"m.s-1","parameterCategory":1,"la1":30.2991,"la2":30.254,"lo1":-89.0895,"lo2":-89.0444,"dy":0.0017,"dx":0.0017,"nx":28,"ny":28,"refTime":"2025-03-09T21:00:00:Z","depth":0,"parameterNumber":2,"parameterNumberName":"U-component_of_WINDS"},"data":[0,0,0,0,0,0,0,0,0,0,0,0,0,0,0,0,0,0,0,0,0,0,0,0,0,0,0,0,0,0,0,0,0,0,0,0,0,0,0,0,0,0,0,0,0,0,0,0,0,0,0,0,0,0,0,0,0,0,7.9014,7.9016,0,7.9182,7.9184,7.9186,7.91,7.9096,7.9091,7.9087,7.9257,7.9266,7.9274,0,0,0,0,0,0,0,0,0,0,0,0,0,7.8617,7.8625,7.9013,7.9016,7.9018,7.9182,7.9184,7.9187,7.9101,7.9095,7.909,7.9085,7.9254,7.9265,7.9275,0,0,0,0,0,0,0,0,0,0,0,0,0,7.8788,7.8627,7.9013,7.8995,7.8995,7.9182,7.9184,7.9187,7.9102,7.9095,7.9089,7.9082,7.9251,7.9264,7.9276,7.949,0,0,7.9316,7.9322,0,0,0,0,0,0,0,0,7.8778,7.8802,7.8995,7.8996,7.8997,7.9113,7.9107,7.9289,7.9104,7.9061,7.9087,7.9079,7.9215,7.923,7.9276,7.9498,7.9506,7.9317,7.9325,7.9331,7.9335,0,0,0,0,0,0,0,7.8766,7.8795,7.908,7.8998,7.8999,7.8978,7.8995,7.9141,7.9173,7.9064,7.9058,7.908,7.9214,7.9264,7.928,7.9508,7.9317,7.9329,7.9337,7.9342,7.9917,7.9924,0,0,0,0,0,0,7.8756,7.8785,7.9075,7.9085,7.8869,7.8991,7.901,7.9083,7.9171,7.9178,7.9085,7.9075,7.9245,7.9265,7.9285,7.9544,7.9331,7.9343,7.935,7.991,7.9919,7.9927,0,0,0,0,0,0,7.8747,7.8782,7.9068,7.8934,7.8969,7.9005,7.9087,7.9089,7.914,7.9187,7.9192,7.9131,7.9241,7.9267,7.9441,7.9548,7.9349,7.9361,7.9901,7.9913,7.9923,8.0061,0,0,0,0,0,0,7.8736,7.878,7.8861,7.8936,7.8976,7.9221,7.9094,7.9098,7.9163,7.9151,7.9231,7.9238,7.9237,7.9422,7.9454,7.9563,7.9371,7.9891,7.9906,7.9919,8.0047,8.0076,8.01,0,0,0,0,0,7.8723,7.8892,7.8866,7.8901,7.9079,7.9227,7.925,7.9246,7.9172,7.9254,7.9285,7.9236,7.9532,7.9441,7.9476,7.959,7.9885,7.9902,7.9918,8.0035,8.007,8.0099,0,0,0,0,0,0,7.8827,7.8902,7.8873,7.9072,7.9145,7.9213,7.9316,7.9283,7.9377,7.9362,7.9353,7.9372,7.9553,7.9588,7.9486,7.9803,7.9697,7.9721,7.9773,7.9807,7.9833,7.9821,7.9382,0,0,0,0,0,7.8874,7.8989,7.9047,7.9217,7.9255,7.928,7.9344,7.9336,7.941,7.944,7.9483,7.9556,7.9666,7.9738,7.9841,8.0052,8.0069,8.0148,8.0175,8.0196,8.0218,8.0334,8.0371,7.9982,7.9982,7.9982,0,0,7.897,7.9025,7.9098,7.924,7.9295,7.9414,7.9306,7.9436,7.9525,7.9459,7.9627,7.9662,7.9743,7.9937,8.0024,7.9972,8.0329,8.0218,8.0234,8.0244,8.0355,8.0392,8.0425,7.9994,7.9992,7.999,0,0,7.9208,7.9261,7.9409,7.9467,7.9553,7.9569,7.9605,7.9679,7.97,7.9869,7.9823,7.9928,8.0116,8.0177,8.0233,8.0498,8.0456,8.0531,8.067,8.0784,8.0814,8.0841,8.0937,8.0972,8.0552,8.0553,8.0553,0,7.9317,7.9496,7.949,7.9625,7.969,7.9637,7.9789,7.9845,7.9959,8.0005,7.9945,8.0183,8.0234,8.0443,8.0508,8.0554,8.0596,8.0522,8.081,8.0837,8.0863,8.0954,8.099,8.0562,8.0561,8.056,8.0559,0,7.9627,7.9752,7.9862,7.9976,8.0053,8.0195,8.0211,8.029,8.0276,8.0298,8.0472,8.0531,8.0647,8.0696,8.0682,8.0904,8.0869,8.0811,8.0703,8.0909,8.0995,8.103,8.0574,8.0571,8.0568,8.0566,0,0,7.9934,8.0045,8.0086,8.0138,8.023,8.0326,8.0467,8.0582,8.0651,8.0732,8.0851,8.1013,8.096,8.1024,8.1016,8.1116,8.1325,8.1045,8.1047,8.1096,8.1576,8.162,8.1661,8.1298,8.1305,8.131,8.1569,0,8.0179,8.0427,8.0427,8.0655,8.0772,8.0725,8.0848,8.0918,8.0944,8.1047,8.1074,8.1191,8.1111,8.1149,8.1246,8.1279,8.1421,8.126,8.1409,8.1415,8.1391,8.1706,8.1753,8.1994,8.1603,8.1608,8.1613,0,8.0498,8.0592,8.0833,8.0911,8.0959,8.107,8.1177,8.1276,8.1355,8.1366,8.1439,8.1417,8.1562,8.1451,8.165,8.1541,8.1602,8.1628,8.1637,8.1651,8.1526,8.1729,8.2071,8.2108,8.1665,8.1661,8.1657,0,8.07,8.0887,8.1056,8.1102,8.1196,8.1275,8.1318,8.1391,8.1461,8.1554,8.16,8.1708,8.1768,8.1853,8.1861,8.1779,8.2063,8.1952,8.2078,8.2078,8.214,8.2136,8.2497,8.2178,8.2177,8.2177,8.2176,0,8.0974,8.1124,8.1148,8.1252,8.1419,8.1418,8.1584,8.1619,8.1685,8.1796,8.1761,8.1866,8.1871,8.1978,8.1986,8.2151,8.2178,8.2192,8.2192,8.2196,8.2194,8.2236,8.222,8.2186,8.2184,8.2182,8.2181,0,8.1228,8.125,8.1432,8.1507,8.153,8.165,8.1714,8.1814,8.1837,8.1978,8.2011,8.2047,8.2172,8.2189,8.2335,8.234,8.254,8.2522,8.2514,8.2511,8.2637,8.2625,8.3038,8.3093,8.2737,8.274,8.2743,0,8.1402,8.1516,8.1605,8.1678,8.1725,8.1842,8.1914,8.1918,8.1995,8.2095,8.2184,8.2306,8.2403,8.2605,8.2645,8.2757,8.2742,8.2879,8.2758,8.2759,8.2746,8.274,8.2752,8.2902,8.2906,8.2909,8.2912,0,8.171,8.1716,8.1821,8.1932,8.202,8.2107,8.2189,8.225,8.2265,8.2353,8.2481,8.2557,8.2707,8.2829,8.2941,8.2984,8.2952,8.295,8.2985,8.299,8.2982,8.299,8.2578,8.294,8.2937,8.2935,8.2934,8.2933,8.193,8.2031,8.211,8.2229,8.2292,8.237,8.2469,8.2505,8.2613,8.2736,8.2732,8.2874,8.2952,8.3099,8.3151,8.3262,8.3217,8.3268,8.3281,8.3294,8.3307,8.2964,8.3282,8.3281,8.328,8.328,8.3279,0,8.2237,8.2286,8.2396,8.2514,8.2608,8.257,8.266,8.2742,8.2867,8.2943,8.3041,8.319,8.3309,8.3359,8.3476,8.3556,8.3544,8.3586,8.3581,8.3592,8.3339,8.3298,8.3594,8.3594,8.3594,8.3594,8.3594,8.3594,8.2408,8.2577,8.2593,8.2794,8.2842,8.2981,8.3036,8.3109,8.317,8.3338,8.3438,8.347,8.3536,8.3658,8.3766,8.3778,8.3823,8.3873,8.3878,8.3641,8.3609,8.3579,8.354,8.3882,8.3883,8.4121,8.4124,8.4125]},{"header":{"parameterUnit":"m.s-1","parameterCategory":1,"la1":30.2991,"la2":30.254,"lo1":-89.0895,"lo2":-89.0444,"dy":0.0017,"dx":0.0017,"nx":28,"ny":28,"refTime":"2025-03-09T21:00:00:Z","depth":0,"parameterNumber":3,"parameterNumberName":"V-component_of_WINDS"},"data":[0,0,0,0,0,0,0,0,0,0,0,0,0,0,0,0,0,0,0,0,0,0,0,0,0,0,0,0,0,0,0,0,0,0,0,0,0,0,0,0,0,0,0,0,0,0,0,0,0,0,0,0,0,0,0,0,0,0,-2.5213,-2.5213,0,-2.5225,-2.5225,-2.5226,-2.5184,-2.5183,-2.5182,-2.5181,-2.5192,-2.5194,-2.5195,0,0,0,0,0,0,0,0,0,0,0,0,0,-2.5154,-2.5155,-2.5213,-2.5213,-2.5213,-2.5225,-2.5225,-2.5226,-2.5185,-2.5183,-2.5182,-2.518,-2.5192,-2.5194,-2.5195,0,0,0,0,0,0,0,0,0,0,0,0,0,-2.5174,-2.5156,-2.5213,-2.5194,-2.5193,-2.5225,-2.5225,-2.5226,-2.5185,-2.5183,-2.5181,-2.5179,-2.5191,-2.5193,-2.5195,-2.5246,0,0,-2.5202,-2.5203,0,0,0,0,0,0,0,0,-2.5173,-2.5176,-2.5197,-2.5196,-2.5194,-2.5201,-2.5209,-2.5232,-2.5185,-2.5188,-2.5181,-2.5179,-2.5197,-2.5198,-2.5205,-2.5247,-2.5247,-2.5202,-2.5204,-2.5205,-2.5205,0,0,0,0,0,0,0,-2.5172,-2.5176,-2.5218,-2.5197,-2.5196,-2.5185,-2.5186,-2.5213,-2.5203,-2.5188,-2.5185,-2.5187,-2.5196,-2.5203,-2.5205,-2.5247,-2.5202,-2.5204,-2.5206,-2.5206,-2.5332,-2.5334,0,0,0,0,0,0,-2.5173,-2.5175,-2.5217,-2.5218,-2.5179,-2.5188,-2.5189,-2.5201,-2.5202,-2.5201,-2.5188,-2.5185,-2.52,-2.5202,-2.5205,-2.5265,-2.5205,-2.5207,-2.5208,-2.533,-2.5333,-2.5335,0,0,0,0,0,0,-2.5172,-2.5177,-2.5217,-2.5196,-2.52,-2.5191,-2.5205,-2.5202,-2.5209,-2.5203,-2.5201,-2.5197,-2.5198,-2.5202,-2.5236,-2.5265,-2.5208,-2.521,-2.5328,-2.5331,-2.5334,-2.5385,0,0,0,0,0,0,-2.517,-2.5177,-2.5196,-2.5196,-2.5201,-2.5249,-2.5207,-2.5204,-2.5213,-2.5209,-2.5211,-2.5209,-2.5197,-2.5233,-2.5239,-2.5267,-2.5211,-2.5325,-2.5329,-2.5333,-2.5381,-2.5389,-2.5397,0,0,0,0,0,-2.5168,-2.521,-2.5197,-2.5203,-2.5225,-2.525,-2.5253,-2.5239,-2.5216,-2.5235,-2.5231,-2.5209,-2.5261,-2.5237,-2.5243,-2.5272,-2.5323,-2.5328,-2.5333,-2.5377,-2.5388,-2.5397,0,0,0,0,0,0,-2.5212,-2.5209,-2.5196,-2.5238,-2.5245,-2.5243,-2.5267,-2.525,-2.5263,-2.5258,-2.524,-2.524,-2.5279,-2.5278,-2.5252,-2.5321,-2.5288,-2.5294,-2.532,-2.533,-2.5338,-2.5337,-2.5213,0,0,0,0,0,-2.5227,-2.5248,-2.5244,-2.5282,-2.5286,-2.5276,-2.5287,-2.5275,-2.5281,-2.5284,-2.5282,-2.5288,-2.5306,-2.5318,-2.5334,-2.538,-2.5381,-2.5403,-2.5411,-2.5418,-2.5423,-2.5449,-2.5459,-2.535,-2.535,-2.535,0,0,-2.5258,-2.5259,-2.5273,-2.5291,-2.5295,-2.5317,-2.5279,-2.5304,-2.532,-2.5287,-2.532,-2.5319,-2.5325,-2.5366,-2.5384,-2.5367,-2.5454,-2.5424,-2.5429,-2.5431,-2.5455,-2.5465,-2.5474,-2.5353,-2.5352,-2.5352,0,0,-2.5325,-2.5327,-2.536,-2.5365,-2.5371,-2.5364,-2.5372,-2.5373,-2.5372,-2.5405,-2.5381,-2.54,-2.543,-2.5436,-2.5442,-2.5513,-2.5494,-2.5518,-2.5561,-2.5586,-2.5594,-2.5602,-2.5628,-2.5637,-2.5524,-2.5524,-2.5524,0,-2.5362,-2.5394,-2.5379,-2.5405,-2.5414,-2.5386,-2.5419,-2.5424,-2.5436,-2.5442,-2.5423,-2.5462,-2.5464,-2.5506,-2.5524,-2.553,-2.5539,-2.5518,-2.5594,-2.5602,-2.5609,-2.5633,-2.5643,-2.5527,-2.5526,-2.5526,-2.5526,0,-2.544,-2.5463,-2.5489,-2.5501,-2.5513,-2.5542,-2.5531,-2.5545,-2.5532,-2.5528,-2.5562,-2.5563,-2.5579,-2.5588,-2.5576,-2.5629,-2.5619,-2.5598,-2.5564,-2.5622,-2.5645,-2.5654,-2.5531,-2.553,-2.5529,-2.5528,0,0,-2.5535,-2.5539,-2.5549,-2.5554,-2.556,-2.5577,-2.5605,-2.5622,-2.5634,-2.5643,-2.5667,-2.5694,-2.5674,-2.5682,-2.567,-2.5692,-2.5749,-2.5668,-2.5668,-2.5684,-2.5808,-2.5825,-2.5836,-2.5736,-2.5738,-2.5739,-2.5808,0,-2.5602,-2.5651,-2.5638,-2.5687,-2.5709,-2.5683,-2.5708,-2.5714,-2.571,-2.5728,-2.5723,-2.5743,-2.5716,-2.572,-2.5741,-2.5737,-2.5774,-2.5732,-2.5758,-2.5759,-2.5758,-2.5848,-2.5865,-2.593,-2.5817,-2.5818,-2.5819,0,-2.5686,-2.5699,-2.5751,-2.5753,-2.5762,-2.5785,-2.5799,-2.5816,-2.5822,-2.5818,-2.5827,-2.5811,-2.584,-2.5806,-2.5845,-2.5817,-2.5827,-2.5827,-2.5829,-2.5831,-2.5793,-2.5853,-2.5951,-2.5961,-2.5833,-2.5832,-2.5831,0,-2.5752,-2.5782,-2.5817,-2.5822,-2.5826,-2.5843,-2.5845,-2.5849,-2.586,-2.5872,-2.5879,-2.5895,-2.5903,-2.5915,-2.5904,-2.588,-2.5945,-2.591,-2.5943,-2.5943,-2.5958,-2.5957,-2.606,-2.5964,-2.5963,-2.5963,-2.5963,0,-2.5828,-2.5861,-2.5846,-2.5868,-2.5904,-2.5888,-2.5925,-2.5924,-2.5928,-2.5949,-2.5927,-2.5947,-2.5931,-2.595,-2.5941,-2.5975,-2.5979,-2.5976,-2.5974,-2.5979,-2.5979,-2.5985,-2.5981,-2.5966,-2.5965,-2.5965,-2.5964,0,-2.5907,-2.5899,-2.5935,-2.5936,-2.5937,-2.5964,-2.5964,-2.5984,-2.5979,-2.6006,-2.6012,-2.6004,-2.6025,-2.6015,-2.6036,-2.603,-2.6075,-2.6066,-2.6073,-2.6071,-2.6105,-2.6102,-2.6215,-2.6229,-2.6123,-2.6124,-2.6125,0,-2.5957,-2.5982,-2.5985,-2.5998,-2.6002,-2.6023,-2.6034,-2.6019,-2.6032,-2.6042,-2.6061,-2.608,-2.6095,-2.613,-2.6126,-2.6142,-2.6134,-2.6172,-2.6136,-2.6141,-2.6136,-2.6135,-2.6138,-2.618,-2.6181,-2.6182,-2.6183,0,-2.6046,-2.6041,-2.6058,-2.6074,-2.6088,-2.61,-2.611,-2.6121,-2.6107,-2.6123,-2.6144,-2.6156,-2.6178,-2.6198,-2.6213,-2.6215,-2.6197,-2.6194,-2.6203,-2.6209,-2.6212,-2.6212,-2.6094,-2.6192,-2.6191,-2.619,-2.619,-2.619,-2.6113,-2.6134,-2.614,-2.616,-2.6166,-2.6176,-2.6195,-2.6193,-2.6211,-2.6228,-2.6219,-2.6244,-2.625,-2.6268,-2.6273,-2.6293,-2.6277,-2.629,-2.6293,-2.6296,-2.6302,-2.6209,-2.6295,-2.6295,-2.6294,-2.6294,-2.6294,0,-2.6202,-2.6205,-2.6223,-2.6238,-2.6254,-2.6236,-2.6246,-2.626,-2.6283,-2.6291,-2.6306,-2.6331,-2.635,-2.6348,-2.6365,-2.6382,-2.6374,-2.6387,-2.6386,-2.6387,-2.6314,-2.6305,-2.6393,-2.6393,-2.6393,-2.6393,-2.6393,-2.6393,-2.625,-2.6285,-2.6281,-2.6319,-2.6321,-2.6346,-2.6354,-2.6363,-2.6369,-2.6398,-2.6414,-2.6413,-2.6416,-2.6434,-2.6451,-2.645,-2.6458,-2.6474,-2.647,-2.6402,-2.6392,-2.6383,-2.6374,-2.6475,-2.6475,-2.6541,-2.6542,-2.6542]}]]